Date_Time,Julian_Date,Latitude,Longitude,Instrument_Depth,U,V,Speed,Direction
(yyyy-mm-dd hh:mn:ss UTC),(JD),(+ deg. North),(+ deg. East),(m),(cm/s),(cm/s),(cm/s),(deg True)
1981-09-23 21:00:00 UTC,2444871.375000,28.7408,-95.2406,0212,-5.83,-9.33,11.0000,212.0000
1981-09-23 21:30:00 UTC,2444871.395833,28.7408,-95.2406,0212,-6.71,-9.95,12.0000,214.0000
1981-09-23 22:00:00 UTC,2444871.416667,28.7408,-95.2406,0212,-7.22,-9.58,12.0000,217.0000
1981-09-23 22:30:00 UTC,2444871.437500,28.7408,-95.2406,0212,-7.71,-9.19,12.0000,220.0000
1981-09-23 23:00:00 UTC,2444871.458333,28.7408,-95.2406,0212,-6.69,-7.43,10.0000,222.0000
1981-09-23 23:30:00 UTC,2444871.479167,28.7408,-95.2406,0212,-6.14,-6.58,9.0000,223.0000
1981-09-24 00:00:00 UTC,2444871.500000,28.7408,-95.2406,0212,-5.35,-5.95,8.0000,222.0000
1981-09-24 00:30:00 UTC,2444871.520833,28.7408,-95.2406,0212,-4.41,-5.44,7.0000,219.0000
1981-09-24 01:00:00 UTC,2444871.541667,28.7408,-95.2406,0212,-3.86,-4.60,6.0000,220.0000
1981-09-24 01:30:00 UTC,2444871.562500,28.7408,-95.2406,0212,-3.86,-4.60,6.0000,220.0000
1981-09-24 02:00:00 UTC,2444871.583333,28.7408,-95.2406,0212,-3.54,-3.54,5.0000,225.0000
1981-09-24 02:30:00 UTC,2444871.604167,28.7408,-95.2406,0212,-3.24,-2.35,4.0000,234.0000
1981-09-24 03:00:00 UTC,2444871.625000,28.7408,-95.2406,0212,-1.68,-1.09,2.0000,237.0000
1981-09-24 03:30:00 UTC,2444871.645833,28.7408,-95.2406,0212,-0.82,-0.57,1.0000,235.0000
1981-09-24 04:00:00 UTC,2444871.666667,28.7408,-95.2406,0212,-0.00,-0.00,0.0000,207.0000
1981-09-24 04:30:00 UTC,2444871.687500,28.7408,-95.2406,0212,0.71,-0.71,1.0000,135.0000
1981-09-24 05:00:00 UTC,2444871.708333,28.7408,-95.2406,0212,0.93,-0.37,1.0000,112.0000
1981-09-24 05:30:00 UTC,2444871.729167,28.7408,-95.2406,0212,2.00,-0.10,2.0000,93.0000
1981-09-24 06:00:00 UTC,2444871.750000,28.7408,-95.2406,0212,2.00,-0.03,2.0000,91.0000
1981-09-24 06:30:00 UTC,2444871.770833,28.7408,-95.2406,0212,1.93,-0.52,2.0000,105.0000
1981-09-24 07:00:00 UTC,2444871.791667,28.7408,-95.2406,0212,1.70,-1.06,2.0000,122.0000
1981-09-24 07:30:00 UTC,2444871.812500,28.7408,-95.2406,0212,1.00,-1.73,2.0000,150.0000
1981-09-24 08:00:00 UTC,2444871.833333,28.7408,-95.2406,0212,-0.26,-2.99,3.0000,185.0000
1981-09-24 08:30:00 UTC,2444871.854167,28.7408,-95.2406,0212,-1.32,-2.70,3.0000,206.0000
1981-09-24 09:00:00 UTC,2444871.875000,28.7408,-95.2406,0212,-2.29,-3.28,4.0000,215.0000
1981-09-24 09:30:00 UTC,2444871.895833,28.7408,-95.2406,0212,-2.35,-3.24,4.0000,216.0000
1981-09-24 10:00:00 UTC,2444871.916667,28.7408,-95.2406,0212,-2.46,-3.15,4.0000,218.0000
1981-09-24 10:30:00 UTC,2444871.937500,28.7408,-95.2406,0212,-1.97,-2.26,3.0000,221.0000
1981-09-24 11:00:00 UTC,2444871.958333,28.7408,-95.2406,0212,-0.54,-0.84,1.0000,213.0000
1981-09-24 11:30:00 UTC,2444871.979167,28.7408,-95.2406,0212,0.98,-0.21,1.0000,102.0000
1981-09-24 12:00:00 UTC,2444872.000000,28.7408,-95.2406,0212,1.95,0.45,2.0000,77.0000
1981-09-24 12:30:00 UTC,2444872.020833,28.7408,-95.2406,0212,2.74,1.22,3.0000,66.0000
1981-09-24 13:00:00 UTC,2444872.041667,28.7408,-95.2406,0212,4.33,2.50,5.0000,60.0000
1981-09-24 13:30:00 UTC,2444872.062500,28.7408,-95.2406,0212,4.10,2.87,5.0000,55.0000
1981-09-24 14:00:00 UTC,2444872.083333,28.7408,-95.2406,0212,4.53,3.94,6.0000,49.0000
1981-09-24 14:30:00 UTC,2444872.104167,28.7408,-95.2406,0212,4.59,5.28,7.0000,41.0000
1981-09-24 15:00:00 UTC,2444872.125000,28.7408,-95.2406,0212,4.81,6.39,8.0000,37.0000
1981-09-24 15:30:00 UTC,2444872.145833,28.7408,-95.2406,0212,5.29,7.28,9.0000,36.0000
1981-09-24 16:00:00 UTC,2444872.166667,28.7408,-95.2406,0212,5.03,7.46,9.0000,34.0000
1981-09-24 16:30:00 UTC,2444872.187500,28.7408,-95.2406,0212,5.03,7.46,9.0000,34.0000
1981-09-24 17:00:00 UTC,2444872.208333,28.7408,-95.2406,0212,5.03,7.46,9.0000,34.0000
1981-09-24 17:30:00 UTC,2444872.229167,28.7408,-95.2406,0212,3.66,8.22,9.0000,24.0000
1981-09-24 18:00:00 UTC,2444872.250000,28.7408,-95.2406,0212,2.85,10.63,11.0000,15.0000
1981-09-24 18:30:00 UTC,2444872.270833,28.7408,-95.2406,0212,3.80,12.43,13.0000,17.0000
1981-09-24 19:00:00 UTC,2444872.291667,28.7408,-95.2406,0212,5.02,13.07,14.0000,21.0000
1981-09-24 19:30:00 UTC,2444872.312500,28.7408,-95.2406,0212,5.49,11.78,13.0000,25.0000
1981-09-24 20:00:00 UTC,2444872.333333,28.7408,-95.2406,0212,5.45,10.69,12.0000,27.0000
1981-09-24 20:30:00 UTC,2444872.354167,28.7408,-95.2406,0212,5.16,9.71,11.0000,28.0000
1981-09-24 21:00:00 UTC,2444872.375000,28.7408,-95.2406,0212,5.83,9.33,11.0000,32.0000
1981-09-24 21:30:00 UTC,2444872.395833,28.7408,-95.2406,0212,6.31,9.01,11.0000,35.0000
1981-09-24 22:00:00 UTC,2444872.416667,28.7408,-95.2406,0212,6.29,7.77,10.0000,39.0000
1981-09-24 22:30:00 UTC,2444872.437500,28.7408,-95.2406,0212,6.02,6.69,9.0000,42.0000
1981-09-24 23:00:00 UTC,2444872.458333,28.7408,-95.2406,0212,5.46,5.85,8.0000,43.0000
1981-09-24 23:30:00 UTC,2444872.479167,28.7408,-95.2406,0212,5.56,5.75,8.0000,44.0000
1981-09-25 00:00:00 UTC,2444872.500000,28.7408,-95.2406,0212,6.04,5.25,8.0000,49.0000
1981-09-25 00:30:00 UTC,2444872.520833,28.7408,-95.2406,0212,6.22,5.03,8.0000,51.0000
1981-09-25 01:00:00 UTC,2444872.541667,28.7408,-95.2406,0212,6.79,5.90,9.0000,49.0000
1981-09-25 01:30:00 UTC,2444872.562500,28.7408,-95.2406,0212,7.31,6.82,10.0000,47.0000
1981-09-25 02:00:00 UTC,2444872.583333,28.7408,-95.2406,0212,7.31,6.82,10.0000,47.0000
1981-09-25 02:30:00 UTC,2444872.604167,28.7408,-95.2406,0212,7.31,6.82,10.0000,47.0000
1981-09-25 03:00:00 UTC,2444872.625000,28.7408,-95.2406,0212,6.58,6.14,9.0000,47.0000
1981-09-25 03:30:00 UTC,2444872.645833,28.7408,-95.2406,0212,6.89,5.79,9.0000,50.0000
1981-09-25 04:00:00 UTC,2444872.666667,28.7408,-95.2406,0212,7.71,4.64,9.0000,59.0000
1981-09-25 04:30:00 UTC,2444872.687500,28.7408,-95.2406,0212,7.31,3.25,8.0000,66.0000
1981-09-25 05:00:00 UTC,2444872.708333,28.7408,-95.2406,0212,5.48,2.44,6.0000,66.0000
1981-09-25 05:30:00 UTC,2444872.729167,28.7408,-95.2406,0212,3.56,1.82,4.0000,63.0000
1981-09-25 06:00:00 UTC,2444872.750000,28.7408,-95.2406,0212,2.91,0.73,3.0000,76.0000
1981-09-25 06:30:00 UTC,2444872.770833,28.7408,-95.2406,0212,2.74,-1.22,3.0000,114.0000
1981-09-25 07:00:00 UTC,2444872.791667,28.7408,-95.2406,0212,3.47,-3.60,5.0000,136.0000
1981-09-25 07:30:00 UTC,2444872.812500,28.7408,-95.2406,0212,2.42,-4.37,5.0000,151.0000
1981-09-25 08:00:00 UTC,2444872.833333,28.7408,-95.2406,0212,-0.52,-2.95,3.0000,190.0000
1981-09-25 08:30:00 UTC,2444872.854167,28.7408,-95.2406,0212,-4.00,-0.00,4.0000,270.0000
1981-09-25 09:00:00 UTC,2444872.875000,28.7408,-95.2406,0212,-8.00,-0.28,8.0000,268.0000
1981-09-25 09:30:00 UTC,2444872.895833,28.7408,-95.2406,0212,-8.77,-2.02,9.0000,257.0000
1981-09-25 10:00:00 UTC,2444872.916667,28.7408,-95.2406,0212,-7.61,-2.47,8.0000,252.0000
1981-09-25 10:30:00 UTC,2444872.937500,28.7408,-95.2406,0212,-4.64,-1.87,5.0000,248.0000
1981-09-25 11:00:00 UTC,2444872.958333,28.7408,-95.2406,0212,-1.85,-2.36,3.0000,218.0000
1981-09-25 11:30:00 UTC,2444872.979167,28.7408,-95.2406,0212,-0.44,-4.98,5.0000,185.0000
1981-09-25 12:00:00 UTC,2444873.000000,28.7408,-95.2406,0212,-0.70,-7.97,8.0000,185.0000
1981-09-25 12:30:00 UTC,2444873.020833,28.7408,-95.2406,0212,-1.53,-10.89,11.0000,188.0000
1981-09-25 13:00:00 UTC,2444873.041667,28.7408,-95.2406,0212,-3.14,-12.61,13.0000,194.0000
1981-09-25 13:30:00 UTC,2444873.062500,28.7408,-95.2406,0212,-5.08,-11.97,13.0000,203.0000
1981-09-25 14:00:00 UTC,2444873.083333,28.7408,-95.2406,0212,-5.90,-11.58,13.0000,207.0000
1981-09-25 14:30:00 UTC,2444873.104167,28.7408,-95.2406,0212,-7.55,-9.33,12.0000,219.0000
1981-09-25 15:00:00 UTC,2444873.125000,28.7408,-95.2406,0212,-10.13,-4.30,11.0000,247.0000
1981-09-25 15:30:00 UTC,2444873.145833,28.7408,-95.2406,0212,-10.98,-0.58,11.0000,267.0000
1981-09-25 16:00:00 UTC,2444873.166667,28.7408,-95.2406,0212,-11.00,-0.19,11.0000,269.0000
1981-09-25 16:30:00 UTC,2444873.187500,28.7408,-95.2406,0212,-10.92,-1.34,11.0000,263.0000
1981-09-25 17:00:00 UTC,2444873.208333,28.7408,-95.2406,0212,-10.67,-2.66,11.0000,256.0000
1981-09-25 17:30:00 UTC,2444873.229167,28.7408,-95.2406,0212,-9.74,-2.25,10.0000,257.0000
1981-09-25 18:00:00 UTC,2444873.250000,28.7408,-95.2406,0212,-5.97,0.63,6.0000,276.0000
1981-09-25 18:30:00 UTC,2444873.270833,28.7408,-95.2406,0212,-1.36,1.46,2.0000,317.0000
1981-09-25 19:00:00 UTC,2444873.291667,28.7408,-95.2406,0212,-0.87,-0.50,1.0000,240.0000
1981-09-25 19:30:00 UTC,2444873.312500,28.7408,-95.2406,0212,-2.36,-1.85,3.0000,232.0000
1981-09-25 20:00:00 UTC,2444873.333333,28.7408,-95.2406,0212,-3.76,-1.37,4.0000,250.0000
1981-09-25 20:30:00 UTC,2444873.354167,28.7408,-95.2406,0212,-5.71,-1.85,6.0000,252.0000
1981-09-25 21:00:00 UTC,2444873.375000,28.7408,-95.2406,0212,-9.51,-3.09,10.0000,252.0000
1981-09-25 21:30:00 UTC,2444873.395833,28.7408,-95.2406,0212,-12.56,-3.36,13.0000,255.0000
1981-09-25 22:00:00 UTC,2444873.416667,28.7408,-95.2406,0212,-12.50,-3.58,13.0000,254.0000
1981-09-25 22:30:00 UTC,2444873.437500,28.7408,-95.2406,0212,-10.76,-2.29,11.0000,258.0000
1981-09-25 23:00:00 UTC,2444873.458333,28.7408,-95.2406,0212,-9.96,0.87,10.0000,275.0000
1981-09-25 23:30:00 UTC,2444873.479167,28.7408,-95.2406,0212,-9.56,2.92,10.0000,287.0000
1981-09-26 00:00:00 UTC,2444873.500000,28.7408,-95.2406,0212,-8.65,2.48,9.0000,286.0000
1981-09-26 00:30:00 UTC,2444873.520833,28.7408,-95.2406,0212,-5.85,1.35,6.0000,283.0000
1981-09-26 01:00:00 UTC,2444873.541667,28.7408,-95.2406,0212,-1.36,1.46,2.0000,317.0000
1981-09-26 01:30:00 UTC,2444873.562500,28.7408,-95.2406,0212,1.27,2.72,3.0000,25.0000
1981-09-26 02:00:00 UTC,2444873.583333,28.7408,-95.2406,0212,0.93,2.85,3.0000,18.0000
1981-09-26 02:30:00 UTC,2444873.604167,28.7408,-95.2406,0212,1.27,2.72,3.0000,25.0000
1981-09-26 03:00:00 UTC,2444873.625000,28.7408,-95.2406,0212,3.06,2.57,4.0000,50.0000
1981-09-26 03:30:00 UTC,2444873.645833,28.7408,-95.2406,0212,3.32,2.24,4.0000,56.0000
1981-09-26 04:00:00 UTC,2444873.666667,28.7408,-95.2406,0212,1.26,1.55,2.0000,39.0000
1981-09-26 04:30:00 UTC,2444873.687500,28.7408,-95.2406,0212,1.23,1.58,2.0000,38.0000
1981-09-26 05:00:00 UTC,2444873.708333,28.7408,-95.2406,0212,2.40,1.81,3.0000,53.0000
1981-09-26 05:30:00 UTC,2444873.729167,28.7408,-95.2406,0212,2.62,1.45,3.0000,61.0000
1981-09-26 06:00:00 UTC,2444873.750000,28.7408,-95.2406,0212,1.87,0.72,2.0000,69.0000
1981-09-26 06:30:00 UTC,2444873.770833,28.7408,-95.2406,0212,1.84,0.78,2.0000,67.0000
1981-09-26 07:00:00 UTC,2444873.791667,28.7408,-95.2406,0212,2.57,1.55,3.0000,59.0000
1981-09-26 07:30:00 UTC,2444873.812500,28.7408,-95.2406,0212,1.62,1.18,2.0000,54.0000
1981-09-26 08:00:00 UTC,2444873.833333,28.7408,-95.2406,0212,2.00,-0.03,2.0000,91.0000
1981-09-26 08:30:00 UTC,2444873.854167,28.7408,-95.2406,0212,5.99,-0.31,6.0000,93.0000
1981-09-26 09:00:00 UTC,2444873.875000,28.7408,-95.2406,0212,7.98,-0.56,8.0000,94.0000
1981-09-26 09:30:00 UTC,2444873.895833,28.7408,-95.2406,0212,5.93,-0.94,6.0000,99.0000
1981-09-26 10:00:00 UTC,2444873.916667,28.7408,-95.2406,0212,3.73,-1.43,4.0000,111.0000
1981-09-26 10:30:00 UTC,2444873.937500,28.7408,-95.2406,0212,3.89,-3.15,5.0000,129.0000
1981-09-26 11:00:00 UTC,2444873.958333,28.7408,-95.2406,0212,2.42,-4.37,5.0000,151.0000
1981-09-26 11:30:00 UTC,2444873.979167,28.7408,-95.2406,0212,1.46,-4.78,5.0000,163.0000
1981-09-26 12:00:00 UTC,2444874.000000,28.7408,-95.2406,0212,0.70,-4.95,5.0000,172.0000
1981-09-26 12:30:00 UTC,2444874.020833,28.7408,-95.2406,0212,-0.35,-3.98,4.0000,185.0000
1981-09-26 13:00:00 UTC,2444874.041667,28.7408,-95.2406,0212,2.88,-2.78,4.0000,134.0000
1981-09-26 13:30:00 UTC,2444874.062500,28.7408,-95.2406,0212,7.94,-0.97,8.0000,97.0000
1981-09-26 14:00:00 UTC,2444874.083333,28.7408,-95.2406,0212,9.98,-0.70,10.0000,94.0000
1981-09-26 14:30:00 UTC,2444874.104167,28.7408,-95.2406,0212,7.73,-2.07,8.0000,105.0000
1981-09-26 15:00:00 UTC,2444874.125000,28.7408,-95.2406,0212,5.73,-4.02,7.0000,125.0000
1981-09-26 15:30:00 UTC,2444874.145833,28.7408,-95.2406,0212,4.32,-4.17,6.0000,134.0000
1981-09-26 16:00:00 UTC,2444874.166667,28.7408,-95.2406,0212,3.77,-3.28,5.0000,131.0000
1981-09-26 16:30:00 UTC,2444874.187500,28.7408,-95.2406,0212,3.53,-1.88,4.0000,118.0000
1981-09-26 17:00:00 UTC,2444874.208333,28.7408,-95.2406,0212,4.99,0.26,5.0000,87.0000
1981-09-26 17:30:00 UTC,2444874.229167,28.7408,-95.2406,0212,7.76,1.94,8.0000,76.0000
1981-09-26 18:00:00 UTC,2444874.250000,28.7408,-95.2406,0212,6.95,0.85,7.0000,83.0000
1981-09-26 18:30:00 UTC,2444874.270833,28.7408,-95.2406,0212,5.98,-0.52,6.0000,95.0000
1981-09-26 19:00:00 UTC,2444874.291667,28.7408,-95.2406,0212,4.87,-1.12,5.0000,103.0000
1981-09-26 19:30:00 UTC,2444874.312500,28.7408,-95.2406,0212,3.35,-2.18,4.0000,123.0000
1981-09-26 20:00:00 UTC,2444874.333333,28.7408,-95.2406,0212,2.65,-4.24,5.0000,148.0000
1981-09-26 20:30:00 UTC,2444874.354167,28.7408,-95.2406,0212,1.95,-4.60,5.0000,157.0000
1981-09-26 21:00:00 UTC,2444874.375000,28.7408,-95.2406,0212,1.95,-5.67,6.0000,161.0000
1981-09-26 21:30:00 UTC,2444874.395833,28.7408,-95.2406,0212,-0.84,-5.94,6.0000,188.0000
1981-09-26 22:00:00 UTC,2444874.416667,28.7408,-95.2406,0212,-6.02,-7.99,10.0000,217.0000
1981-09-26 22:30:00 UTC,2444874.437500,28.7408,-95.2406,0212,-4.47,-6.63,8.0000,214.0000
1981-09-26 23:00:00 UTC,2444874.458333,28.7408,-95.2406,0212,2.88,-2.78,4.0000,134.0000
1981-09-26 23:30:00 UTC,2444874.479167,28.7408,-95.2406,0212,6.87,-1.34,7.0000,101.0000
1981-09-27 00:00:00 UTC,2444874.500000,28.7408,-95.2406,0212,7.69,-2.21,8.0000,106.0000
1981-09-27 00:30:00 UTC,2444874.520833,28.7408,-95.2406,0212,6.79,-1.69,7.0000,104.0000
1981-09-27 01:00:00 UTC,2444874.541667,28.7408,-95.2406,0212,6.99,-0.37,7.0000,93.0000
1981-09-27 01:30:00 UTC,2444874.562500,28.7408,-95.2406,0212,7.99,0.42,8.0000,87.0000
1981-09-27 02:00:00 UTC,2444874.583333,28.7408,-95.2406,0212,8.00,-0.14,8.0000,91.0000
1981-09-27 02:30:00 UTC,2444874.604167,28.7408,-95.2406,0212,7.97,-0.70,8.0000,95.0000
1981-09-27 03:00:00 UTC,2444874.625000,28.7408,-95.2406,0212,7.99,-0.42,8.0000,93.0000
1981-09-27 03:30:00 UTC,2444874.645833,28.7408,-95.2406,0212,8.00,0.00,8.0000,90.0000
1981-09-27 04:00:00 UTC,2444874.666667,28.7408,-95.2406,0212,7.00,0.12,7.0000,89.0000
1981-09-27 04:30:00 UTC,2444874.687500,28.7408,-95.2406,0212,6.96,0.73,7.0000,84.0000
1981-09-27 05:00:00 UTC,2444874.708333,28.7408,-95.2406,0212,6.73,1.93,7.0000,74.0000
1981-09-27 05:30:00 UTC,2444874.729167,28.7408,-95.2406,0212,7.42,3.00,8.0000,68.0000
1981-09-27 06:00:00 UTC,2444874.750000,28.7408,-95.2406,0212,7.76,1.94,8.0000,76.0000
1981-09-27 06:30:00 UTC,2444874.770833,28.7408,-95.2406,0212,7.00,0.24,7.0000,88.0000
1981-09-27 07:00:00 UTC,2444874.791667,28.7408,-95.2406,0212,6.87,-1.34,7.0000,101.0000
1981-09-27 07:30:00 UTC,2444874.812500,28.7408,-95.2406,0212,5.80,-3.91,7.0000,124.0000
1981-09-27 08:00:00 UTC,2444874.833333,28.7408,-95.2406,0212,3.88,-7.00,8.0000,151.0000
1981-09-27 08:30:00 UTC,2444874.854167,28.7408,-95.2406,0212,1.05,-9.95,10.0000,174.0000
1981-09-27 09:00:00 UTC,2444874.875000,28.7408,-95.2406,0212,-2.03,-12.84,13.0000,189.0000
1981-09-27 09:30:00 UTC,2444874.895833,28.7408,-95.2406,0212,-4.02,-12.36,13.0000,198.0000
1981-09-27 10:00:00 UTC,2444874.916667,28.7408,-95.2406,0212,-5.49,-11.78,13.0000,205.0000
1981-09-27 10:30:00 UTC,2444874.937500,28.7408,-95.2406,0212,-6.57,-12.36,14.0000,208.0000
1981-09-27 11:00:00 UTC,2444874.958333,28.7408,-95.2406,0212,-6.10,-11.48,13.0000,208.0000
1981-09-27 11:30:00 UTC,2444874.979167,28.7408,-95.2406,0212,-6.36,-10.18,12.0000,212.0000
1981-09-27 12:00:00 UTC,2444875.000000,28.7408,-95.2406,0212,-6.29,-7.77,10.0000,219.0000
1981-09-27 12:30:00 UTC,2444875.020833,28.7408,-95.2406,0212,-5.35,-5.95,8.0000,222.0000
1981-09-27 13:00:00 UTC,2444875.041667,28.7408,-95.2406,0212,-3.91,-5.80,7.0000,214.0000
1981-09-27 13:30:00 UTC,2444875.062500,28.7408,-95.2406,0212,-2.62,-6.49,7.0000,202.0000
1981-09-27 14:00:00 UTC,2444875.083333,28.7408,-95.2406,0212,-1.45,-5.82,6.0000,194.0000
1981-09-27 14:30:00 UTC,2444875.104167,28.7408,-95.2406,0212,0.00,-5.00,5.0000,180.0000
1981-09-27 15:00:00 UTC,2444875.125000,28.7408,-95.2406,0212,1.95,-4.60,5.0000,157.0000
1981-09-27 15:30:00 UTC,2444875.145833,28.7408,-95.2406,0212,3.27,-5.03,6.0000,147.0000
1981-09-27 16:00:00 UTC,2444875.166667,28.7408,-95.2406,0212,3.86,-4.60,6.0000,140.0000
1981-09-27 16:30:00 UTC,2444875.187500,28.7408,-95.2406,0212,5.66,-4.11,7.0000,126.0000
1981-09-27 17:00:00 UTC,2444875.208333,28.7408,-95.2406,0212,6.29,-3.07,7.0000,116.0000
1981-09-27 17:30:00 UTC,2444875.229167,28.7408,-95.2406,0212,6.44,-2.74,7.0000,113.0000
1981-09-27 18:00:00 UTC,2444875.250000,28.7408,-95.2406,0212,6.58,-2.39,7.0000,110.0000
1981-09-27 18:30:00 UTC,2444875.270833,28.7408,-95.2406,0212,6.76,-1.81,7.0000,105.0000
1981-09-27 19:00:00 UTC,2444875.291667,28.7408,-95.2406,0212,7.69,-2.21,8.0000,106.0000
1981-09-27 19:30:00 UTC,2444875.312500,28.7408,-95.2406,0212,7.61,-2.47,8.0000,108.0000
1981-09-27 20:00:00 UTC,2444875.333333,28.7408,-95.2406,0212,7.42,-3.00,8.0000,112.0000
1981-09-27 20:30:00 UTC,2444875.354167,28.7408,-95.2406,0212,6.47,-4.70,8.0000,126.0000
1981-09-27 21:00:00 UTC,2444875.375000,28.7408,-95.2406,0212,5.03,-7.46,9.0000,146.0000
1981-09-27 21:30:00 UTC,2444875.395833,28.7408,-95.2406,0212,1.72,-8.83,9.0000,169.0000
1981-09-27 22:00:00 UTC,2444875.416667,28.7408,-95.2406,0212,-2.33,-8.69,9.0000,195.0000
1981-09-27 22:30:00 UTC,2444875.437500,28.7408,-95.2406,0212,-6.36,-10.18,12.0000,212.0000
1981-09-27 23:00:00 UTC,2444875.458333,28.7408,-95.2406,0212,-9.44,-11.66,15.0000,219.0000
1981-09-27 23:30:00 UTC,2444875.479167,28.7408,-95.2406,0212,-10.50,-12.08,16.0000,221.0000
1981-09-28 00:00:00 UTC,2444875.500000,28.7408,-95.2406,0212,-11.38,-12.63,17.0000,222.0000
1981-09-28 00:30:00 UTC,2444875.520833,28.7408,-95.2406,0212,-12.04,-13.38,18.0000,222.0000
1981-09-28 01:00:00 UTC,2444875.541667,28.7408,-95.2406,0212,-11.57,-13.79,18.0000,220.0000
1981-09-28 01:30:00 UTC,2444875.562500,28.7408,-95.2406,0212,-11.08,-14.18,18.0000,218.0000
1981-09-28 02:00:00 UTC,2444875.583333,28.7408,-95.2406,0212,-11.08,-14.18,18.0000,218.0000
1981-09-28 02:30:00 UTC,2444875.604167,28.7408,-95.2406,0212,-10.47,-13.40,17.0000,218.0000
1981-09-28 03:00:00 UTC,2444875.625000,28.7408,-95.2406,0212,-10.28,-12.26,16.0000,220.0000
1981-09-28 03:30:00 UTC,2444875.645833,28.7408,-95.2406,0212,-11.31,-11.31,16.0000,225.0000
1981-09-28 04:00:00 UTC,2444875.666667,28.7408,-95.2406,0212,-11.66,-9.44,15.0000,231.0000
1981-09-28 04:30:00 UTC,2444875.687500,28.7408,-95.2406,0212,-11.33,-8.23,14.0000,234.0000
1981-09-28 05:00:00 UTC,2444875.708333,28.7408,-95.2406,0212,-10.52,-7.64,13.0000,234.0000
1981-09-28 05:30:00 UTC,2444875.729167,28.7408,-95.2406,0212,-9.95,-6.71,12.0000,236.0000
1981-09-28 06:00:00 UTC,2444875.750000,28.7408,-95.2406,0212,-10.06,-6.54,12.0000,237.0000
1981-09-28 06:30:00 UTC,2444875.770833,28.7408,-95.2406,0212,-9.71,-7.05,12.0000,234.0000
1981-09-28 07:00:00 UTC,2444875.791667,28.7408,-95.2406,0212,-9.46,-7.39,12.0000,232.0000
1981-09-28 07:30:00 UTC,2444875.812500,28.7408,-95.2406,0212,-8.78,-6.62,11.0000,233.0000
1981-09-28 08:00:00 UTC,2444875.833333,28.7408,-95.2406,0212,-8.90,-6.47,11.0000,234.0000
1981-09-28 08:30:00 UTC,2444875.854167,28.7408,-95.2406,0212,-9.83,-6.88,12.0000,235.0000
1981-09-28 09:00:00 UTC,2444875.875000,28.7408,-95.2406,0212,-9.83,-6.88,12.0000,235.0000
1981-09-28 09:30:00 UTC,2444875.895833,28.7408,-95.2406,0212,-11.03,-8.62,14.0000,232.0000
1981-09-28 10:00:00 UTC,2444875.916667,28.7408,-95.2406,0212,-11.32,-9.84,15.0000,229.0000
1981-09-28 10:30:00 UTC,2444875.937500,28.7408,-95.2406,0212,-11.66,-9.44,15.0000,231.0000
1981-09-28 11:00:00 UTC,2444875.958333,28.7408,-95.2406,0212,-11.98,-9.03,15.0000,233.0000
1981-09-28 11:30:00 UTC,2444875.979167,28.7408,-95.2406,0212,-11.82,-9.23,15.0000,232.0000
1981-09-28 12:00:00 UTC,2444876.000000,28.7408,-95.2406,0212,-12.61,-9.85,16.0000,232.0000
1981-09-28 12:30:00 UTC,2444876.020833,28.7408,-95.2406,0212,-13.42,-8.71,16.0000,237.0000
1981-09-28 13:00:00 UTC,2444876.041667,28.7408,-95.2406,0212,-15.04,-5.47,16.0000,250.0000
1981-09-28 13:30:00 UTC,2444876.062500,28.7408,-95.2406,0212,-15.65,-3.33,16.0000,258.0000
1981-09-28 14:00:00 UTC,2444876.083333,28.7408,-95.2406,0212,-13.58,-3.39,14.0000,256.0000
1981-09-28 14:30:00 UTC,2444876.104167,28.7408,-95.2406,0212,-12.29,-4.23,13.0000,251.0000
1981-09-28 15:00:00 UTC,2444876.125000,28.7408,-95.2406,0212,-12.05,-4.87,13.0000,248.0000
1981-09-28 15:30:00 UTC,2444876.145833,28.7408,-95.2406,0212,-11.13,-4.50,12.0000,248.0000
1981-09-28 16:00:00 UTC,2444876.166667,28.7408,-95.2406,0212,-8.91,-4.54,10.0000,243.0000
1981-09-28 16:30:00 UTC,2444876.187500,28.7408,-95.2406,0212,-6.47,-4.70,8.0000,234.0000
1981-09-28 17:00:00 UTC,2444876.208333,28.7408,-95.2406,0212,-5.04,-4.86,7.0000,226.0000
1981-09-28 17:30:00 UTC,2444876.229167,28.7408,-95.2406,0212,-4.21,-5.59,7.0000,217.0000
1981-09-28 18:00:00 UTC,2444876.250000,28.7408,-95.2406,0212,-3.50,-6.06,7.0000,210.0000
1981-09-28 18:30:00 UTC,2444876.270833,28.7408,-95.2406,0212,-4.09,-8.02,9.0000,207.0000
1981-09-28 19:00:00 UTC,2444876.291667,28.7408,-95.2406,0212,-4.07,-9.14,10.0000,204.0000
1981-09-28 19:30:00 UTC,2444876.312500,28.7408,-95.2406,0212,-3.42,-9.40,10.0000,200.0000
1981-09-28 20:00:00 UTC,2444876.333333,28.7408,-95.2406,0212,-2.85,-10.63,11.0000,195.0000
1981-09-28 20:30:00 UTC,2444876.354167,28.7408,-95.2406,0212,-2.66,-10.67,11.0000,194.0000
1981-09-28 21:00:00 UTC,2444876.375000,28.7408,-95.2406,0212,-3.71,-11.41,12.0000,198.0000
1981-09-28 21:30:00 UTC,2444876.395833,28.7408,-95.2406,0212,-4.87,-12.05,13.0000,202.0000
1981-09-28 22:00:00 UTC,2444876.416667,28.7408,-95.2406,0212,-5.86,-13.81,15.0000,203.0000
1981-09-28 22:30:00 UTC,2444876.437500,28.7408,-95.2406,0212,-6.76,-14.50,16.0000,205.0000
1981-09-28 23:00:00 UTC,2444876.458333,28.7408,-95.2406,0212,-5.73,-14.94,16.0000,201.0000
1981-09-28 23:30:00 UTC,2444876.479167,28.7408,-95.2406,0212,-3.60,-15.59,16.0000,193.0000
1981-09-29 00:00:00 UTC,2444876.500000,28.7408,-95.2406,0212,-3.60,-15.59,16.0000,193.0000
1981-09-29 00:30:00 UTC,2444876.520833,28.7408,-95.2406,0212,-5.47,-15.04,16.0000,200.0000
1981-09-29 01:00:00 UTC,2444876.541667,28.7408,-95.2406,0212,-7.42,-17.49,19.0000,203.0000
1981-09-29 01:30:00 UTC,2444876.562500,28.7408,-95.2406,0212,-8.21,-19.33,21.0000,203.0000
1981-09-29 02:00:00 UTC,2444876.583333,28.7408,-95.2406,0212,-7.53,-19.61,21.0000,201.0000
1981-09-29 02:30:00 UTC,2444876.604167,28.7408,-95.2406,0212,-6.19,-17.96,19.0000,199.0000
1981-09-29 03:00:00 UTC,2444876.625000,28.7408,-95.2406,0212,-5.53,-16.07,17.0000,199.0000
1981-09-29 03:30:00 UTC,2444876.645833,28.7408,-95.2406,0212,-5.13,-14.10,15.0000,200.0000
1981-09-29 04:00:00 UTC,2444876.666667,28.7408,-95.2406,0212,-4.45,-12.22,13.0000,200.0000
1981-09-29 04:30:00 UTC,2444876.687500,28.7408,-95.2406,0212,-3.22,-10.52,11.0000,197.0000
1981-09-29 05:00:00 UTC,2444876.708333,28.7408,-95.2406,0212,-1.91,-9.82,10.0000,191.0000
1981-09-29 05:30:00 UTC,2444876.729167,28.7408,-95.2406,0212,-0.84,-7.96,8.0000,186.0000
1981-09-29 06:00:00 UTC,2444876.750000,28.7408,-95.2406,0212,-0.21,-6.00,6.0000,182.0000
1981-09-29 06:30:00 UTC,2444876.770833,28.7408,-95.2406,0212,0.44,-4.98,5.0000,175.0000
1981-09-29 07:00:00 UTC,2444876.791667,28.7408,-95.2406,0212,1.55,-4.76,5.0000,162.0000
1981-09-29 07:30:00 UTC,2444876.812500,28.7408,-95.2406,0212,1.85,-2.36,3.0000,142.0000
1981-09-29 08:00:00 UTC,2444876.833333,28.7408,-95.2406,0212,2.91,-0.73,3.0000,104.0000
1981-09-29 08:30:00 UTC,2444876.854167,28.7408,-95.2406,0212,3.86,1.04,4.0000,75.0000
1981-09-29 09:00:00 UTC,2444876.875000,28.7408,-95.2406,0212,4.60,1.95,5.0000,67.0000
1981-09-29 09:30:00 UTC,2444876.895833,28.7408,-95.2406,0212,5.30,2.82,6.0000,62.0000
1981-09-29 10:00:00 UTC,2444876.916667,28.7408,-95.2406,0212,6.29,3.07,7.0000,64.0000
1981-09-29 10:30:00 UTC,2444876.937500,28.7408,-95.2406,0212,7.42,3.00,8.0000,68.0000